Temp
62 61 61 60 60 59 58 58 58 56 57 58 58 58 57 57 56 54 53 54 54 53 53 52 53 53 51 51 51 50 49 47 45 50 49 52 52 53 55 56 58 57 58
66 63 61 61 60 59 58 58 58 58 57 58 59 58 58 58 57 55 55 57 55 54 54 53 53 56 52 52 51 50 50 52 49 49 50 50 52 54 54 54 56 62 59
65 62 61 60 59 58 58 58 59 58 58 58 59 58 59 58 57 57 56 56 56 55 54 53 53 52 51 51 51 51 52 53 51 49 50 50 51 52 52 53 54 55 59
65 64 61 59 59 58 58 59 59 59 59 58 58 59 59 59 59 58 58 56 55 56 55 54 53 52 51 51 51 52 52 51 50 50 49 50 50 52 51 51 52 53 54
63 61 60 60 59 59 59 59 59 58 59 59 58 59 59 59 62 59 58 56 55 54 55 55 54 56 60 57 54 53 51 50 49 49 48 48 49 49 50 51 50 52 53
64 61 60 59 59 58 57 57 57 57 57 57 57 57 57 60 48 50 55 55 56 54 53 54 54 57 57 58 59 58 55 51 49 48 49 48 50 50 50 51 50 49 49
61 61 60 59 58 57 57 57 56 55 56 56 56 56 47 47 48 48 50 52 53 53 53 52 54 59 57 56 57 57 56 56 56 52 50 50 49 51 51 50 50 50 49
57 58 58 57 56 56 55 54 54 54 54 53 50 48 44 46 48 48 49 51 51 52 52 53 52 52 53 54 54 54 55 55 54 54 53 54 53 55 53 53 52 50 51
55 55 55 55 53 53 51 51 51 51 51 51 48 46 43 43 47 46 46 44 46 46 50 52 52 50 48 48 52 54 54 53 56 55 53 52 51 51 51 50 49 48 47
52 53 53 52 51 49 47 48 48 48 50 52 49 46 48 42 46 46 46 44 46 47 48 49 51 48 46 45 48 52 53 53 51 52 52 52 50 51 50 51 50 48 47
51 51 50 49 50 47 46 46 45 46 47 50 51 48 43 43 43 45 46 42 45 46 48 48 49 46 44 44 44 47 49 51 51 49 48 49 50 52 52 51 51 52 49
48 48 47 46 49 49 44 44 44 43 42 42 41 41 42 43 46 44 44 44 45 41 46 47 47 44 43 43 45 46 45 47 47 47 47 49 49 50 52 54 53 53 54
47 45 45 46 47 46 44 44 43 42 40 40 40 39 39 41 39 43 43 44 44 41 43 47 45 43 43 46 47 47 47 46 45 46 47 49 49 51 53 53 53 54 53
45 45 46 44 45 46 47 44 40 40 40 40 40 38 37 38 38 38 40 37 41 41 43 38 44 45 46 46 47 48 51 50 49 50 52 52 52 52 53 52 51 52 50
48 47 44 43 42 42 43 41 42 42 41 40 39 38 37 37 39 41 40 41 40 40 38 37 39 40 40 42 43 44 45 47 46 45 47 49 50 52 54 53 51 50 49
46 44 43 42 41 41 40 40 44 43 43 42 41 40 40 42 43 43 41 41 40 39 36 37 37 36 37 38 39 41 42 43 44 44 46 47 47 48 52 53 53 51 49
42 41 40 40 40 38 38 37 36 44 43 43 43 43 41 41 43 42 40 40 40 41 36 35 35 35 36 37 37 38 39 42 43 44 43 45 46 48 50 53 54 53 52
40 43 37 38 38 37 37 38 37 36 36 39 43 42 41 40 42 40 41 39 37 37 37 37 35 35 35 36 37 37 39 42 41 42 42 43 43 45 47 48 53 53 54
41 39 39 38 38 39 37 37 37 37 37 37 38 41 41 39 40 40 40 36 36 35 36 35 35 35 34 35 36 37 38 39 40 41 40 40 41 43 44 44 46 45 49
41 43 41 38 39 39 37 37 37 37 37 37 38 38 40 37 38 38 38 37 36 35 35 35 35 35 35 34 34 36 38 36 36 37 37 38 38 40 42 43 44 46 52
39 39 41 38 39 38 37 37 37 37 37 37 37 40 35 37 37 37 36 36 36 36 36 35 34 34 34 35 34 36 35 35 35 36 37 37 37 37 40 43 43 44 48
39 38 38 38 38 37 37 37 37 39 39 38 38 39 36 37 37 38 37 38 38 37 37 37 35 35 36 35 35 35 33 32 33 34 35 36 36 37 38 41 42 43 45
39 39 39 37 37 38 37 37 37 37 37 38 38 40 39 38 40 40 42 38 37 37 37 37 37 35 37 38 37 35 33 32 33 34 34 35 35 36 36 37 41 42 42
38 37 36 36 36 37 36 37 40 38 40 40 39 38 37 37 37 39 39 37 38 38 37 37 37 37 37 38 37 35 34 34 34 33 35 35 35 35 36 35 38 41 41
36 36 36 36 36 37 38 39 38 39 39 39 38 38 37 36 36 38 39 40 39 38 37 37 37 39 39 40 37 36 33 32 33 32 34 35 35 35 35 35 35 39 41
36 37 36 37 38 37 37 36 36 36 36 36 36 35 35 35 36 36 37 37 37 37 38 37 38 40 42 41 41 35 32 32 32 31 32 35 35 35 35 35 34 35 39
MSLP
1016.17 1016.79 1016.86 1017.02 1017.13 1017.32 1017.72 1018.10 1018.11 1017.95 1017.67 1017.77 1017.89 1017.97 1018.00 1017.96 1017.79 1017.85 1017.83 1017.74 1017.81 1017.65 1017.53 1017.59 1017.35 1017.01 1016.97 1016.73 1016.64 1016.63 1016.64 1016.68 1016.66 1015.36 1014.79 1013.83 1013.43 1013.03 1012.57 1012.31 1011.98 1011.62 1011.32
1015.70 1016.22 1016.71 1016.96 1017.06 1017.41 1017.67 1017.79 1017.65 1017.61 1017.44 1017.56 1017.57 1017.61 1017.60 1017.51 1017.32 1017.40 1017.40 1017.20 1017.15 1017.11 1016.92 1017.01 1016.85 1016.50 1016.43 1016.18 1016.17 1016.15 1016.02 1015.77 1015.91 1015.35 1014.57 1013.94 1013.41 1012.68 1012.36 1012.13 1011.71 1011.10 1011.04
1015.54 1016.05 1016.52 1016.82 1017.11 1017.35 1017.50 1017.38 1017.23 1017.24 1017.06 1017.16 1017.16 1017.13 1017.05 1016.90 1016.77 1016.68 1016.65 1016.55 1016.45 1016.35 1016.21 1016.23 1016.14 1016.06 1016.00 1015.68 1015.58 1015.57 1015.29 1015.11 1015.12 1015.06 1014.47 1013.79 1013.20 1012.68 1012.31 1011.85 1011.54 1011.09 1010.64
1015.09 1015.63 1016.32 1016.62 1016.88 1017.04 1017.02 1016.69 1016.62 1016.48 1016.54 1016.73 1016.72 1016.70 1016.61 1016.43 1016.27 1016.09 1015.98 1015.86 1015.78 1015.65 1015.50 1015.47 1015.41 1015.34 1015.24 1015.11 1014.98 1014.87 1014.69 1014.69 1014.58 1014.53 1014.14 1013.70 1013.24 1012.63 1012.50 1012.26 1011.61 1011.15 1010.63
1014.89 1015.46 1015.90 1015.95 1016.31 1016.58 1016.35 1016.29 1016.14 1016.22 1016.15 1016.35 1016.45 1016.33 1016.27 1016.22 1015.97 1015.66 1015.46 1015.32 1015.15 1014.98 1014.88 1014.82 1014.71 1014.54 1014.39 1014.19 1014.25 1014.09 1014.18 1014.18 1014.17 1014.12 1013.91 1013.57 1013.18 1012.75 1012.54 1012.20 1011.99 1011.31 1010.46
1015.28 1015.29 1015.79 1016.29 1016.81 1016.61 1016.46 1016.58 1016.50 1016.47 1016.38 1016.47 1016.48 1016.46 1016.47 1016.59 1016.59 1015.85 1015.39 1014.98 1014.68 1014.62 1014.54 1014.17 1014.09 1013.93 1013.67 1013.42 1013.27 1013.16 1013.26 1013.39 1013.50 1013.60 1013.33 1013.14 1012.70 1012.38 1012.04 1011.98 1011.86 1011.61 1011.18
1016.16 1016.14 1016.58 1016.94 1017.00 1016.78 1016.85 1016.79 1016.85 1016.97 1016.70 1016.62 1016.66 1016.70 1017.37 1017.33 1016.89 1016.11 1015.35 1014.76 1014.38 1014.12 1013.91 1013.75 1013.73 1013.37 1013.10 1012.87 1012.59 1012.53 1012.55 1012.45 1012.43 1012.49 1012.62 1012.40 1012.08 1011.61 1011.54 1011.48 1011.50 1011.50 1011.21
1016.62 1017.04 1017.19 1017.03 1017.07 1017.06 1016.96 1017.04 1016.93 1016.76 1016.72 1016.82 1017.15 1017.47 1017.71 1017.59 1016.99 1016.15 1015.60 1015.28 1014.80 1014.25 1013.94 1013.73 1013.57 1013.26 1012.86 1012.65 1012.23 1012.02 1011.74 1011.67 1011.58 1011.67 1011.71 1011.38 1011.14 1010.79 1010.91 1010.85 1010.94 1011.03 1010.73
1017.54 1017.69 1017.62 1017.55 1017.51 1017.35 1017.41 1017.42 1017.13 1017.06 1016.99 1017.13 1017.45 1017.66 1017.71 1017.60 1017.17 1016.43 1015.90 1015.70 1015.40 1015.11 1014.39 1013.84 1013.59 1013.56 1013.41 1012.68 1012.03 1011.71 1011.42 1011.03 1010.71 1010.81 1010.73 1010.58 1010.24 1010.09 1010.32 1010.61 1010.71 1010.96 1010.73
1018.26 1018.30 1018.21 1018.03 1017.97 1017.96 1017.91 1017.62 1017.41 1017.16 1016.91 1017.04 1017.59 1017.76 1017.78 1017.63 1017.12 1016.62 1016.32 1016.05 1015.53 1015.16 1014.64 1014.11 1013.70 1013.65 1013.32 1012.86 1012.25 1011.58 1011.34 1010.71 1010.79 1010.53 1010.37 1010.20 1010.00 1009.69 1009.81 1009.95 1009.91 1010.31 1010.41
1018.56 1018.46 1018.38 1018.31 1018.21 1018.22 1018.03 1017.87 1017.74 1017.44 1017.16 1017.28 1017.57 1017.80 1017.91 1017.56 1017.23 1016.85 1016.55 1016.37 1016.04 1015.58 1015.02 1014.31 1013.80 1013.49 1013.09 1012.69 1012.20 1011.79 1011.26 1010.72 1010.47 1010.47 1010.30 1010.02 1009.71 1009.35 1009.14 1009.09 1009.11 1009.20 1009.48
1018.72 1018.72 1018.85 1018.83 1018.77 1018.61 1018.45 1018.12 1017.96 1018.00 1017.92 1017.82 1017.91 1017.99 1017.83 1017.53 1017.22 1016.83 1016.55 1016.46 1016.15 1015.82 1015.22 1014.57 1014.01 1013.44 1012.84 1012.19 1011.67 1011.11 1010.60 1010.54 1010.21 1010.06 1009.93 1009.61 1009.38 1008.93 1008.31 1008.18 1008.02 1008.08 1008.11
1019.32 1019.41 1019.36 1019.27 1019.19 1018.96 1018.83 1018.68 1018.50 1018.36 1018.27 1018.11 1017.99 1018.01 1017.86 1017.47 1017.13 1016.95 1016.48 1016.25 1015.91 1015.58 1015.08 1014.50 1013.81 1013.23 1012.66 1012.19 1011.39 1010.78 1010.25 1010.19 1009.98 1009.75 1009.46 1008.98 1008.66 1008.14 1007.79 1007.52 1007.39 1007.44 1007.68
1019.95 1019.98 1019.66 1019.53 1019.44 1019.17 1018.94 1018.83 1018.80 1018.63 1018.42 1018.19 1018.04 1018.03 1017.82 1017.51 1017.36 1016.90 1016.33 1016.07 1015.69 1015.21 1014.85 1014.50 1014.14 1013.67 1013.23 1012.56 1012.10 1011.51 1010.77 1010.60 1010.04 1009.80 1009.30 1008.55 1007.86 1007.60 1007.43 1007.25 1007.32 1007.39 1007.71
1020.05 1019.96 1019.83 1019.75 1019.61 1019.44 1019.22 1019.04 1018.86 1018.35 1018.31 1018.01 1017.73 1017.80 1017.67 1017.39 1017.10 1016.61 1016.33 1016.40 1015.65 1014.99 1014.82 1014.74 1014.50 1014.33 1013.91 1013.17 1012.86 1012.38 1011.83 1010.90 1010.28 1010.42 1009.74 1008.94 1008.04 1007.35 1006.94 1006.70 1007.00 1007.19 1007.54
1019.84 1020.01 1020.09 1019.93 1019.80 1019.65 1019.43 1019.06 1018.22 1018.00 1017.69 1017.21 1017.04 1016.99 1016.82 1016.74 1016.60 1016.25 1016.36 1016.28 1015.61 1014.94 1015.15 1015.33 1015.13 1015.01 1014.72 1014.28 1013.72 1013.18 1012.47 1011.92 1010.63 1010.81 1010.17 1009.32 1008.66 1007.80 1006.82 1006.49 1006.50 1006.65 1007.13
1019.74 1019.89 1020.00 1019.97 1019.79 1019.67 1019.35 1019.10 1018.97 1017.69 1017.29 1017.14 1016.75 1016.47 1016.43 1016.30 1016.14 1015.92 1016.30 1016.23 1015.69 1015.18 1015.44 1015.65 1015.64 1015.41 1015.09 1014.72 1014.17 1013.60 1013.00 1012.48 1011.49 1011.24 1010.62 1009.55 1009.08 1008.13 1006.97 1006.18 1006.11 1006.29 1006.62
1019.69 1019.71 1019.89 1019.77 1019.59 1019.34 1019.09 1018.86 1018.54 1018.37 1018.05 1017.40 1016.55 1016.25 1016.04 1015.92 1015.81 1015.66 1016.15 1016.11 1015.97 1015.90 1015.96 1015.91 1015.81 1015.61 1015.34 1014.97 1014.43 1013.86 1013.34 1012.71 1011.99 1011.70 1010.97 1010.36 1009.61 1008.58 1007.68 1006.96 1005.98 1005.68 1005.93
1019.58 1019.61 1019.53 1019.41 1019.14 1018.88 1018.79 1018.57 1018.17 1017.88 1017.70 1017.25 1016.76 1015.99 1015.70 1015.57 1015.49 1015.97 1015.96 1016.33 1016.11 1016.13 1016.10 1016.06 1015.94 1015.71 1015.46 1015.14 1014.68 1014.12 1013.53 1013.05 1012.71 1012.25 1011.59 1011.14 1010.08 1009.19 1008.33 1007.49 1006.63 1005.72 1005.53
1019.29 1019.11 1019.01 1019.02 1018.82 1018.57 1018.43 1018.36 1017.96 1017.65 1017.39 1016.94 1016.42 1016.10 1015.72 1015.71 1015.85 1015.91 1016.19 1016.29 1016.17 1016.14 1016.02 1015.94 1015.78 1015.52 1015.27 1015.07 1014.86 1014.55 1014.10 1013.76 1013.32 1012.76 1012.12 1011.56 1010.97 1009.80 1009.03 1007.88 1007.01 1006.40 1005.46
1019.14 1018.99 1018.74 1018.65 1018.37 1018.31 1018.18 1017.97 1017.54 1017.21 1016.88 1016.52 1016.18 1015.71 1015.56 1015.61 1015.65 1015.81 1015.92 1015.99 1015.96 1015.91 1015.73 1015.69 1015.65 1015.43 1015.08 1014.92 1014.79 1014.66 1014.49 1014.13 1013.74 1013.14 1012.51 1011.92 1011.13 1010.19 1009.46 1008.12 1007.93 1006.96 1006.13
1018.69 1018.68 1018.58 1018.39 1018.03 1017.81 1017.57 1017.29 1016.93 1016.65 1016.34 1016.12 1015.94 1015.63 1015.29 1015.36 1015.36 1015.37 1015.34 1015.35 1015.31 1015.30 1015.27 1015.25 1015.20 1015.06 1014.78 1014.61 1014.59 1014.53 1014.50 1014.27 1013.83 1013.30 1012.80 1012.17 1011.39 1010.62 1009.87 1008.81 1008.22 1007.60 1006.63
1018.34 1018.36 1018.17 1017.91 1017.65 1017.34 1017.06 1016.72 1016.36 1016.13 1015.95 1015.91 1015.80 1015.55 1015.35 1015.34 1015.17 1015.03 1014.96 1014.99 1014.97 1014.94 1014.86 1014.79 1014.69 1014.60 1014.42 1014.13 1014.18 1014.28 1014.24 1014.15 1013.89 1013.41 1012.91 1012.17 1011.67 1010.88 1010.31 1009.46 1008.58 1007.68 1007.17
1018.14 1018.11 1017.87 1017.59 1017.26 1017.03 1016.77 1016.47 1016.39 1016.07 1015.81 1015.79 1015.74 1015.60 1015.49 1015.27 1015.17 1014.98 1014.88 1014.91 1014.70 1014.47 1014.32 1014.27 1014.18 1014.12 1014.01 1013.89 1013.90 1014.08 1014.04 1013.88 1013.73 1013.45 1012.99 1012.48 1012.00 1011.36 1010.70 1010.00 1009.22 1008.60 1007.71
1017.83 1017.73 1017.43 1017.18 1016.99 1016.74 1016.59 1016.28 1016.12 1015.85 1015.77 1015.68 1015.62 1015.49 1015.27 1015.20 1015.08 1014.87 1014.64 1014.48 1014.36 1014.26 1014.08 1013.86 1013.68 1013.52 1013.35 1013.37 1013.51 1013.73 1013.74 1013.65 1013.56 1013.36 1013.05 1012.65 1012.14 1011.56 1011.09 1010.92 1010.15 1008.99 1008.12
1017.47 1017.22 1017.03 1016.71 1016.54 1016.50 1016.34 1016.25 1016.06 1015.85 1015.69 1015.54 1015.39 1015.34 1015.19 1015.00 1014.77 1014.50 1014.27 1014.11 1014.02 1013.89 1013.68 1013.41 1013.26 1013.02 1012.84 1012.87 1013.06 1013.23 1013.29 1013.33 1013.34 1013.22 1012.99 1012.69 1012.15 1011.72 1011.07 1010.48 1009.89 1009.35 1008.80
Wind_Speed
7 7 8 6 6 6 5 5 6 4 5 5 6 6 6 7 7 5 6 7 6 7 5 6 7 5 5 5 3 3 3 4 4 5 3 3 4 5 6 4 6 5 5
11 7 7 6 6 6 6 7 6 6 4 7 6 6 6 7 7 7 7 7 7 7 7 6 7 4 6 5 4 6 4 4 4 8 3 3 4 5 5 5 5 4 4
8 8 7 7 7 7 7 7 6 6 7 7 6 7 7 7 7 8 8 8 8 7 7 7 7 6 6 4 5 5 4 4 4 4 5 2 3 2 4 3 4 5 3
9 9 9 8 8 7 8 7 7 7 7 7 7 7 7 7 7 7 7 8 7 7 7 7 7 7 7 7 5 6 5 5 3 4 4 4 3 3 2 3 5 2 4
9 8 8 7 7 7 8 7 7 6 6 6 6 7 7 6 6 7 7 7 7 7 7 7 7 8 13 9 4 6 5 4 4 4 4 3 3 3 3 2 3 4 4
1 6 1 3 4 4 4 4 4 5 5 5 6 6 7 6 18 17 11 7 7 7 7 7 6 9 9 11 10 10 8 5 5 4 4 4 5 4 3 2 2 2 4
8 9 7 5 5 6 6 6 6 5 4 6 6 7 9 8 16 17 16 6 6 7 8 6 6 5 8 7 8 9 9 11 14 6 6 6 5 5 3 2 3 3 4
8 7 5 6 6 5 5 6 4 3 5 5 6 7 6 6 13 19 18 11 8 7 6 6 6 8 9 8 7 7 7 7 6 5 9 10 9 9 6 4 4 3 4
7 6 6 5 5 6 6 6 4 4 2 3 4 5 5 5 10 14 11 8 9 11 9 7 7 6 13 14 6 8 7 6 4 10 11 11 15 12 8 2 4 2 3
7 6 6 5 6 6 5 5 3 3 4 2 5 4 5 2 8 10 8 4 8 7 9 8 6 11 17 17 8 5 6 5 4 6 6 7 6 7 12 8 4 4 3
5 5 7 7 6 6 5 4 5 6 6 6 5 3 1 2 4 6 9 4 5 7 7 8 7 15 19 19 10 6 5 5 6 5 5 6 5 5 4 7 8 6 5
6 7 7 7 5 5 6 6 4 4 5 4 2 1 2 3 5 6 7 5 8 4 8 7 8 14 19 19 12 11 13 9 5 4 4 7 6 6 5 5 8 9 6
7 7 6 6 6 6 6 6 4 3 2 2 2 2 3 3 4 9 11 8 9 5 5 10 17 16 15 10 14 12 9 3 4 3 5 6 4 5 6 3 3 5 5
6 5 5 5 6 6 4 3 3 3 3 3 4 4 3 4 4 5 5 5 8 8 9 6 9 12 9 8 10 10 6 6 7 6 7 7 5 4 3 2 3 3 3
3 4 5 4 5 5 4 2 3 4 4 5 4 3 3 4 3 7 7 7 7 7 7 2 4 7 8 9 9 8 8 7 8 8 8 8 8 6 5 4 3 3 3
3 4 4 3 3 4 4 6 8 7 8 9 8 6 2 7 8 10 8 12 11 9 5 4 5 4 5 5 6 8 8 10 8 7 8 8 9 9 6 3 3 3 4
2 3 2 3 3 4 4 4 5 11 9 7 8 8 6 9 10 9 6 10 7 7 4 4 3 4 3 4 4 5 6 8 8 7 8 9 10 8 9 4 4 4 4
2 5 2 3 4 4 4 5 4 3 4 4 7 5 5 9 11 3 6 6 4 5 3 3 3 4 5 4 4 4 4 6 7 8 9 9 9 9 7 6 4 7 7
2 3 4 4 4 5 4 5 4 4 4 5 3 6 5 8 9 6 3 1 3 2 1 2 2 3 3 4 5 6 6 4 7 7 8 9 10 10 8 7 6 8 8
5 7 5 4 4 5 4 4 5 4 4 5 4 4 4 1 2 1 2 2 2 2 1 1 1 2 3 3 4 5 6 6 6 6 7 8 9 10 9 7 8 7 4
3 4 6 4 4 4 4 5 5 5 5 4 4 4 4 3 3 4 4 3 3 3 2 1 1 2 2 2 3 3 4 4 5 7 7 7 7 9 11 8 8 8 6
3 3 4 4 4 4 5 5 5 5 4 3 3 3 4 2 2 3 4 4 4 4 3 4 3 3 2 1 2 2 2 3 4 5 7 8 8 7 9 8 8 7 7
3 5 5 5 5 6 5 5 5 4 3 3 3 3 2 2 1 3 4 4 4 4 4 4 4 4 4 2 2 3 2 1 3 4 6 7 8 7 7 9 9 7 8
4 5 5 5 5 5 4 3 6 5 4 3 3 3 3 2 3 3 2 4 4 4 4 4 4 5 5 5 3 3 2 2 2 4 6 6 7 9 6 8 10 11 8
5 5 5 5 4 4 5 3 3 2 2 2 3 2 3 3 3 3 4 3 3 4 5 5 4 6 6 8 5 6 5 2 1 4 4 6 8 12 9 5 7 9 9
5 5 4 2 3 3 2 3 4 3 4 4 4 3 3 3 4 4 4 4 4 4 5 4 5 8 6 5 6 7 6 4 2 3 4 4 6 7 8 10 13 8 10
Wind_Direction
171 184 174 173 168 164 185 208 211 208 213 230 242 246 240 244 248 246 250 253 248 263 265 251 265 261 260 260 252 247 240 177 240 292 253 287 293 299 295 283 286 283 282
186 177 168 164 165 176 196 208 200 219 220 234 244 245 246 245 247 240 249 248 241 256 257 256 258 270 272 263 248 250 241 219 211 279 274 285 265 285 275 294 300 286 275
168 154 157 163 180 192 210 215 211 222 231 244 240 245 251 246 243 241 236 246 244 244 245 232 250 259 272 265 258 253 246 257 228 239 280 261 273 294 308 290 287 297 262
159 152 164 180 202 206 219 213 219 220 228 240 249 254 254 255 250 247 244 246 249 246 237 236 243 244 250 265 257 252 250 255 252 254 276 282 254 284 260 286 320 294 298
140 150 182 196 213 221 222 229 233 237 247 255 263 265 270 274 268 253 252 251 248 246 246 247 244 248 259 246 247 259 244 245 258 258 267 270 281 303 291 276 278 301 293
181 162 203 355 291 276 299 317 341 321 302 292 294 294 310 356 355 344 313 267 253 246 254 257 255 273 266 264 267 253 219 225 243 223 247 245 264 248 228 250 264 324 319
90 70 67 71 51 49 43 53 44 20 16 21 17 19 60 26 2 357 344 291 264 255 249 248 274 266 261 259 259 254 261 235 229 224 238 235 253 233 215 246 233 225 239
63 68 65 58 55 59 54 40 27 23 33 45 48 74 67 26 18 21 14 3 345 317 292 284 278 288 293 280 263 251 248 252 246 225 227 250 242 254 212 214 211 252 283
56 53 37 38 45 49 33 12 354 5 4 77 87 92 83 25 14 31 33 12 1 342 338 339 341 5 349 340 276 261 262 268 257 261 238 251 259 246 236 167 239 197 277
40 32 23 26 57 34 12 360 335 322 308 127 106 93 90 41 16 35 33 10 358 347 335 337 344 356 338 340 331 290 253 263 303 307 311 305 286 253 222 218 189 206 204
50 35 26 27 28 25 2 5 351 10 42 62 101 98 82 22 360 19 24 13 351 339 333 331 329 333 323 319 317 282 250 275 281 267 281 289 287 272 227 215 212 199 193
33 29 19 21 10 6 3 347 24 43 55 49 65 351 277 295 329 350 353 337 328 308 318 316 310 307 307 310 305 265 271 271 258 267 276 281 278 278 263 227 213 213 212
33 20 19 7 356 358 10 6 360 14 12 301 314 307 303 287 315 336 322 318 314 307 292 304 308 308 303 318 330 338 344 325 283 270 268 266 252 255 278 263 216 199 204
35 8 360 4 350 350 345 18 353 327 317 284 288 292 301 303 328 316 304 323 316 315 308 316 325 338 339 1 358 356 3 5 13 353 320 289 278 261 244 205 172 147 129
26 357 353 343 348 347 333 294 315 281 216 270 251 225 240 290 259 259 293 335 317 299 320 335 16 5 1 18 10 358 346 355 15 350 339 326 325 295 255 189 189 147 163
26 353 341 352 345 333 323 325 314 273 314 329 231 210 250 228 241 280 354 343 349 44 53 22 14 360 355 353 3 4 7 337 15 345 332 335 330 320 293 209 172 167 169
4 349 311 335 327 319 313 319 310 320 339 303 318 320 240 230 241 269 10 333 353 49 71 38 17 357 327 337 334 347 354 348 350 342 341 336 336 325 321 237 192 183 189
4 321 238 280 296 307 306 302 289 270 287 287 310 307 288 229 251 277 352 327 32 25 47 34 6 351 347 334 322 310 322 352 360 351 348 339 330 331 336 335 292 211 198
305 270 254 267 283 285 289 297 290 303 259 260 296 326 302 246 274 30 359 226 127 100 90 49 345 356 359 341 337 338 323 337 360 356 358 348 342 338 333 336 329 299 202
260 265 275 270 293 301 305 295 306 307 278 285 282 276 301 25 13 90 149 197 119 144 147 114 349 354 355 342 349 10 14 360 356 354 353 341 336 332 325 333 345 326 295
250 273 277 295 302 300 276 277 287 280 280 279 278 278 267 177 196 174 184 184 177 192 186 165 281 314 326 355 24 39 350 332 340 346 339 336 324 329 328 348 322 333 326
266 277 285 281 278 278 277 280 272 282 265 303 305 302 356 28 204 207 191 203 203 196 201 193 207 238 270 358 147 60 353 335 338 351 341 334 331 323 322 336 335 337 339
262 280 283 287 288 285 285 283 282 270 317 323 301 309 328 359 244 210 203 232 228 232 223 219 211 237 251 264 176 161 154 279 312 329 341 343 329 329 325 326 325 341 346
283 281 281 277 279 287 284 340 344 333 360 340 336 333 312 305 321 298 261 287 278 246 236 229 227 242 241 247 172 173 176 207 310 321 336 347 335 333 333 331 336 337 336
265 279 282 288 294 329 311 309 262 305 305 294 287 290 314 321 317 309 293 284 253 264 265 263 245 248 260 230 203 184 189 170 349 321 326 341 346 336 343 325 319 320 334
277 289 284 279 307 301 305 306 308 310 303 300 301 299 284 273 275 278 281 283 276 278 281 270 262 263 264 233 188 175 178 194 260 341 329 335 347 345 339 340 335 331 338